User: anonymous   Login
Location: Unspecified
(0.0000°N, 0.0000°E)
Time: 13:13:23
(UTC+00:00)
Language:

VELOX 1 - Orbit

View from above orbital plane
View from above orbital plane
View from above satellite
View from above satellite

Ground track
Ground track

The orbit data is extracted from the following two-line orbital elements,

1 40057U 14034E   19085.16678589  .00000237  00000-0  40723-4 0  9993
2 40057  98.2224 206.4955 0011967 139.2767 220.9352 14.77608345255285
Epoch (UTC): 26 March 2019 04:00:10
Eccentricity: 0.0011967
inclination: 98.2224°
perigee height: 628 km
apogee height: 645 km
right ascension of ascending node: 206.4955°
argument of perigee: 139.2767°
revolutions per day: 14.77608345
mean anomaly at epoch: 220.9352°
orbit number at epoch: 25528

The dashed part of the orbit path shows where the satellite is in the earth's shadow,  

DLR